C/2019 N1 ( ATLAS )

Japanese version
Home page
Updated on August 11, 2020

---------------------------------------------------------------------

* Profile

Discovery Date July 5, 2019
Magnitude 18.6 mag
Discoverer Asteroid Terrestrial-Impact Last Alert System (ATLAS) search program

* Pictures

* Orbital Elements

Epoch 2020 Dec. 17.0 TT = JDT 2459200.5
T 2020 Dec. 1.80584 TT                                  Rudenko
q   1.7046105            (2000.0)            P               Q
z  +0.0000477      Peri.  193.44640     -0.93823247     +0.25612049
 +/-0.0000013      Node    13.57325     -0.14505882     +0.31926244
e   0.9999187      Incl.   82.42755     -0.31413019     -0.91240002
From 1519 observations 2019 June 10-2020 July 31, mean residual 0".7.

* Finding Charts

* Magnitudes Graph

        m1 = 9.0 + 5 log d + 7.0 log r

---------------------------------------------------------------------

The orbital elements are published on M.P.E.C. 2020-P19.
The charts are made with StellaNavigator Ver.10 (AstroArts).
The magnitudes graphs are made with Comet for Windows.

---------------------------------------------------------------------

Copyright(C) Seiichi Yoshida (comet@aerith.net). All rights reserved.